Tracking 17925 objects as of 24-January-2017
HD Live streaming from Space Station
objects crossing your sky now

ASIASTAR

Track ASIASTAR now!
ASIASTAR is classified as:


NORAD ID: 26107
Int'l Code: 2000-016A
Perigee: 35,775.8 km
Apogee: 35,810.6 km
Inclination: 1.4 °
Period: 1,436.1 minutes
Semi major axis: 42164 km
RCS: 19.9526 m2 (large)
Launch date: March 21, 2000
Source: United States (US)
Launch site: FRENCH GUIANA (FRGUI)

Africa, Middle East, Asia, Latin America and Caribbean. Services to underserved emerging markets; low-cost portable receivers.
Your satellite tracking list
Your tracking list is empty





NASA's NSSDC Master Catalog

Two Line Element Set (TLE):
1 26107U 00016A   17022.84423260 -.00000334 +00000-0 +00000-0 0  9995
2 26107 001.3765 082.1737 0004133 221.5998 227.5272 01.00273799061513
Source of the keplerian elements: AFSPC